GW6504 Weather Reports


Display with metric or nautical units.
time (UTC)temp
F
wind
direction
speed
MPH
gust
MPH
rain 1hr
in
rain 24hr
in
rain mn
in
humidity
%
barometer
mb
20260507105003 60 4 2.0 4.0 0.00 0.00 0.00 18 1017.1
20260507104504 60 356 2.0 4.0 0.00 0.00 0.00 18 1017.0
20260507104003 61 4 3.0 5.0 0.00 0.00 0.00 18 1017.0
20260507103504 60 14 4.0 5.0 0.00 0.00 0.00 18 1017.1
20260507103003 62 16 3.0 5.0 0.00 0.00 0.00 18 1017.0
20260507102503 61 17 2.0 5.0 0.00 0.00 0.00 16 1017.2
20260507102003 62 349 2.0 5.0 0.00 0.00 0.00 18 1017.1
20260507101716 62 26 2.0 5.0 0.00 0.00 0.00 18 1017.1
20260507101213 61 10 3.0 5.0 0.00 0.00 0.00 18 1017.0
20260507100503 62 24 2.0 4.0 0.00 0.00 0.00 18 1017.0
20260507100004 61 63 1.0 4.0 0.00 0.00 0.00 17 1016.9
20260507095503 63 125 1.0 4.0 0.00 0.00 0.00 16 1016.9
20260507095003 64 174 1.0 3.0 0.00 0.00 0.00 16 1016.9
20260507094713 62 152 1.0 3.0 0.00 0.00 0.00 17 1016.9
20260507094003 61 119 2.0 3.0 0.00 0.00 0.00 17 1016.9
20260507093714 60 124 1.0 2.0 0.00 0.00 0.00 18 1016.9
20260507093003 60 120 2.0 4.0 0.00 0.00 0.00 18 1016.9
20260507092503 60 92 2.0 4.0 0.00 0.00 0.00 18 1016.8
20260507092003 60 99 2.0 4.0 0.00 0.00 0.00 18 1016.9
20260507091503 62 51 2.0 7.0 0.00 0.00 0.00 17 1016.8
20260507091214 62 7 2.0 7.0 0.00 0.00 0.00 16 1016.9
20260507090717 62 6 2.0 7.0 0.00 0.00 0.00 17 1016.8
20260507090004 62 44 1.0 3.0 0.00 0.00 0.00 17 1016.8
20260507085503 60 38 1.0 3.0 0.00 0.00 0.00 17 1017.0
20260507085003 60 94 1.0 3.0 0.00 0.00 0.00 18 1017.0
20260507084503 59 126 3.0 4.0 0.00 0.00 0.00 19 1016.9
20260507084003 59 138 3.0 4.0 0.00 0.00 0.00 19 1017.1
20260507083503 60 121 2.0 4.0 0.00 0.00 0.00 18 1017.0
20260507083003 61 44 1.0 4.0 0.00 0.00 0.00 17 1017.0
20260507082505 60 63 2.0 4.0 0.00 0.00 0.00 18 1017.0
20260507082003 60 104 3.0 4.0 0.00 0.00 0.00 18 1017.1
20260507081504 59 127 3.0 4.0 0.00 0.00 0.00 19 1017.0
20260507081215 59 125 3.0 6.0 0.00 0.00 0.00 19 1017.1
20260507080503 58 130 3.0 6.0 0.00 0.00 0.00 19 1017.0
20260507080004 60 131 2.0 4.0 0.00 0.00 0.00 19 1017.0
20260507075503 59 136 3.0 4.0 0.00 0.00 0.00 19 1017.2
20260507075004 59 143 3.0 4.0 0.00 0.00 0.00 19 1017.3
20260507074503 59 126 2.0 3.0 0.00 0.00 0.00 19 1017.2
20260507074003 59 119 2.0 4.0 0.00 0.00 0.00 19 1017.2
20260507073503 58 132 3.0 4.0 0.00 0.00 0.00 20 1017.0
20260507073004 58 138 2.0 4.0 0.00 0.00 0.00 20 1017.3
20260507072503 59 142 2.0 3.0 0.00 0.00 0.00 21 1017.0
20260507072214 58 140 2.0 4.0 0.00 0.00 0.00 21 1017.2
20260507071504 56 143 3.0 4.0 0.00 0.00 0.00 21 1017.1
20260507071003 56 125 3.0 4.0 0.00 0.00 0.00 22 1017.2
20260507070504 56 117 4.0 8.0 0.00 0.00 0.00 22 1017.1
20260507070008 55 122 4.0 8.0 0.00 0.00 0.00 19 1017.2
20260507065504 55 132 4.0 5.0 0.00 0.00 0.00 19 1017.1
20260507065003 56 130 3.0 5.0 0.00 0.00 0.00 22 1017.2
20260507064503 56 99 2.0 3.0 0.00 0.00 0.00 22 1017.1
20260507064003 56 94 2.0 3.0 0.00 0.00 0.00 22 1017.1
20260507063503 54 101 2.0 3.0 0.00 0.00 0.00 20 1017.2
20260507063003 55 123 1.0 3.0 0.00 0.00 0.00 23 1017.2
20260507062504 55 125 1.0 4.0 0.00 0.00 0.00 23 1017.0
20260507062003 54 113 2.0 4.0 0.00 0.00 0.00 21 1017.2
20260507061503 55 103 1.0 3.0 0.00 0.00 0.00 21 1017.1
20260507061003 56 97 1.0 2.0 0.00 0.00 0.00 26 1017.1
20260507060714 56 105 1.0 2.0 0.00 0.00 0.00 25 1017.2
20260507060004 55 132 1.0 3.0 0.00 0.00 0.00 28 1017.1
20260507055503 53 122 1.0 3.0 0.00 0.00 0.00 29 1016.9
20260507055003 54 108 1.0 2.0 0.00 0.00 0.00 29 1017.0
20260507054716 53 112 1.0 2.0 0.00 0.00 0.00 31 1017.1
20260507054003 51 66 1.0 3.0 0.00 0.00 0.00 31 1017.1
20260507053503 50 67 0.0 2.0 0.00 0.00 0.00 36 1017.0
20260507053004 48 105 0.0 1.0 0.00 0.00 0.00 44 1016.9
20260507052713 47 105 0.0 1.0 0.00 0.00 0.00 43 1017.1
20260507052003 46 319 0.0 2.0 0.00 0.00 0.00 52 1017.0
20260507051503 44 326 0.0 2.0 0.00 0.00 0.00 50 1016.9
20260507051004 41 338 0.0 2.0 0.00 0.00 0.00 56 1016.8
20260507050715 40 0 0.0 0.0 0.00 0.00 0.00 58 1017.0
20260507050218 39 0 0.0 0.0 0.00 0.00 0.00 61 1016.9
20260507045503 38 0 0.0 0.0 0.00 0.00 0.00 63 1016.8
20260507045213 37 0 0.0 0.0 0.00 0.00 0.00 60 1016.9
20260507044503 36 0 0.0 0.0 0.00 0.00 0.00 62 1017.0
20260507044003 36 0 0.0 0.0 0.00 0.00 0.00 67 1017.1
20260507043503 35 0 0.0 0.0 0.00 0.00 0.00 72 1017.0
20260507043003 34 0 0.0 0.0 0.00 0.00 0.00 75 1017.0
20260507042713 33 0 0.0 0.0 0.00 0.00 0.00 77 1017.1
20260507042003 31 0 0.0 0.0 0.00 0.00 0.00 80 1017.0
20260507041714 31 0 0.0 0.0 0.00 0.00 0.00 81 1017.1
20260507041003 30 0 0.0 0.0 0.00 0.00 0.00 83 1017.0
20260507040503 29 0 0.0 0.0 0.00 0.00 0.00 83 1016.9
20260507040004 29 0 0.0 0.0 0.00 0.00 0.00 84 1016.9
20260507035716 28 0 0.0 0.0 0.00 0.00 0.00 80 1017.0
20260507035003 28 0 0.0 0.0 0.00 0.00 0.00 80 1017.0
20260507034503 27 0 0.0 0.0 0.00 0.00 0.00 80 1016.9
20260507034003 26 0 0.0 0.0 0.00 0.00 0.00 81 1017.0
20260507033503 26 0 0.0 0.0 0.00 0.00 0.00 81 1016.9
20260507033004 25 0 0.0 0.0 0.00 0.00 0.00 81 1017.0
20260507032503 25 0 0.0 0.0 0.00 0.00 0.00 81 1016.9
20260507032003 25 0 0.0 0.0 0.00 0.00 0.00 81 1016.8
20260507031503 24 0 0.0 0.0 0.00 0.00 0.00 82 1016.7
20260507031003 24 0 0.0 0.0 0.00 0.00 0.00 82 1016.8
20260507030503 24 0 0.0 0.0 0.00 0.00 0.00 82 1016.9
20260507030214 23 0 0.0 0.0 0.00 0.00 0.00 82 1016.9
20260507025503 23 0 0.0 0.0 0.00 0.00 0.00 81 1016.8
20260507025003 23 0 0.0 0.0 0.00 0.00 0.00 81 1016.8
20260507024713 23 0 0.0 0.0 0.00 0.00 0.00 81 1016.8
20260507024003 23 0 0.0 0.0 0.00 0.00 0.00 81 1016.8
20260507023503 23 0 0.0 0.0 0.00 0.00 0.00 81 1016.8
20260507023003 23 0 0.0 0.0 0.00 0.00 0.00 81 1016.7
20260507022503 23 0 0.0 0.0 0.00 0.00 0.00 81 1016.7
20260507022003 23 0 0.0 0.0 0.00 0.00 0.00 81 1016.7
20260507021503 23 0 0.0 0.0 0.00 0.00 0.00 81 1016.8
20260507021214 23 0 0.0 0.0 0.00 0.00 0.00 81 1016.7
20260507020503 23 0 0.0 0.0 0.00 0.00 0.00 80 1016.6
20260507020004 23 0 0.0 0.0 0.00 0.00 0.00 80 1016.7
20260507015503 23 0 0.0 0.0 0.00 0.00 0.00 80 1016.8
20260507015004 23 0 0.0 0.0 0.00 0.00 0.00 80 1016.6
20260507014503 24 0 0.0 0.0 0.00 0.00 0.00 80 1016.7
20260507014217 24 0 0.0 0.0 0.00 0.00 0.00 80 1016.6
20260507013503 24 0 0.0 0.0 0.00 0.00 0.00 79 1016.5
20260507013003 24 0 0.0 0.0 0.00 0.00 0.00 79 1016.7
20260507012715 24 0 0.0 0.0 0.00 0.00 0.00 79 1016.6
20260507012003 24 0 0.0 0.0 0.00 0.00 0.00 78 1016.7
20260507011716 24 0 0.0 0.0 0.00 0.00 0.00 78 1016.7
20260507011003 24 0 0.0 0.0 0.00 0.00 0.00 78 1016.5
20260507010503 24 0 0.0 0.0 0.00 0.00 0.00 78 1016.6
20260507010004 24 0 0.0 0.0 0.00 0.00 0.00 78 1016.6
20260507005503 24 0 0.0 0.0 0.00 0.00 0.00 77 1016.5
20260507005003 24 0 0.0 0.0 0.00 0.00 0.00 76 1016.3
20260507004503 24 0 0.0 0.0 0.00 0.00 0.00 75 1016.3
20260507004217 24 0 0.0 0.0 0.00 0.00 0.00 75 1016.4
20260507003503 24 0 0.0 0.0 0.00 0.00 0.00 75 1016.4
20260507003003 24 0 0.0 0.0 0.00 0.00 0.00 75 1016.2
20260507002503 24 0 0.0 0.0 0.00 0.00 0.00 75 1016.2
20260507002003 24 0 0.0 0.0 0.00 0.00 0.00 75 1016.1
20260507001717 25 0 0.0 0.0 0.00 0.00 0.00 75 1016.2
20260507001003 25 0 0.0 0.0 0.00 0.00 0.00 75 1016.1
20260507000503 25 0 0.0 0.0 0.00 0.00 0.00 74 1016.1
20260507000004 25 0 0.0 0.0 0.00 0.00 0.00 74 1016.0
20260506235503 25 0 0.0 0.0 0.00 0.00 0.00 73 1016.0
20260506235003 25 0 0.0 0.0 0.00 0.00 0.00 73 1016.1
20260506234504 25 0 0.0 0.0 0.00 0.00 0.00 73 1016.0
20260506234003 25 0 0.0 0.0 0.00 0.00 0.00 73 1016.1
20260506233503 25 0 0.0 0.0 0.00 0.00 0.00 74 1016.0
20260506233003 25 0 0.0 0.0 0.00 0.00 0.00 73 1016.0
20260506232503 25 0 0.0 0.0 0.00 0.00 0.00 73 1015.9
20260506232003 25 0 0.0 0.0 0.00 0.00 0.00 72 1016.1
20260506231503 25 0 0.0 0.0 0.00 0.00 0.00 72 1016.0
20260506231003 26 0 0.0 0.0 0.00 0.00 0.00 72 1016.0
20260506230503 26 0 0.0 0.0 0.00 0.00 0.00 73 1015.8
20260506230216 26 0 0.0 0.0 0.00 0.00 0.00 73 1015.9
20260506225503 26 0 0.0 0.0 0.00 0.00 0.00 72 1016.1
20260506225212 26 0 0.0 0.0 0.00 0.00 0.00 72 1016.0
20260506224503 26 0 0.0 0.0 0.00 0.00 0.00 71 1016.1
20260506224003 26 0 0.0 0.0 0.00 0.00 0.00 72 1016.2
20260506223503 26 0 0.0 0.0 0.00 0.00 0.00 72 1016.1
20260506223003 26 0 0.0 0.0 0.00 0.00 0.00 72 1016.1
20260506222503 26 0 0.0 0.0 0.00 0.00 0.00 71 1016.2
20260506222003 26 0 0.0 0.0 0.00 0.00 0.00 70 1015.9
20260506221713 26 0 0.0 0.0 0.00 0.00 0.00 70 1016.1
20260506221003 27 0 0.0 0.0 0.00 0.00 0.00 69 1016.0
20260506220714 27 0 0.0 0.0 0.00 0.00 0.00 69 1016.1
20260506220217 27 0 0.0 0.0 0.00 0.00 0.00 69 1016.0
20260506215503 28 0 0.0 0.0 0.00 0.00 0.00 69 1015.9
20260506215003 28 0 0.0 0.0 0.00 0.00 0.00 69 1015.8
20260506214503 28 0 0.0 0.0 0.00 0.00 0.00 69 1015.9
20260506214003 28 0 0.0 0.0 0.00 0.00 0.00 68 1016.0
20260506213503 28 0 0.0 0.0 0.00 0.00 0.00 68 1015.8
20260506213003 28 0 0.0 0.0 0.00 0.00 0.00 67 1016.0
20260506212503 28 0 0.0 0.0 0.00 0.00 0.00 65 1016.0
20260506212003 28 0 0.0 0.0 0.00 0.00 0.00 64 1015.9
20260506211503 28 0 0.0 0.0 0.00 0.00 0.00 69 1015.9
20260506211004 29 0 0.0 0.0 0.00 0.00 0.00 69 1015.9
20260506210503 29 0 0.0 0.0 0.00 0.00 0.00 70 1016.0
20260506210018 29 0 0.0 0.0 0.00 0.00 0.00 69 1015.9
20260506205716 29 0 0.0 0.0 0.00 0.00 0.00 69 1015.9
20260506205003 29 0 0.0 0.0 0.00 0.00 0.00 68 1015.8
20260506204503 29 0 0.0 0.0 0.00 0.00 0.00 67 1015.9
20260506204003 29 0 0.0 0.0 0.00 0.00 0.00 66 1015.9
20260506203503 30 0 0.0 0.0 0.00 0.00 0.00 66 1015.8
20260506203003 30 0 0.0 0.0 0.00 0.00 0.00 65 1015.8
20260506202503 30 0 0.0 0.0 0.00 0.00 0.00 65 1015.7
20260506202003 31 0 0.0 0.0 0.00 0.00 0.00 64 1015.9
20260506201503 31 0 0.0 0.0 0.00 0.00 0.00 64 1015.8
20260506201003 31 0 0.0 0.0 0.00 0.00 0.00 63 1015.9
20260506200504 32 0 0.0 0.0 0.00 0.00 0.00 62 1015.7
20260506200213 32 0 0.0 0.0 0.00 0.00 0.00 61 1015.9
20260506195503 33 0 0.0 0.0 0.00 0.00 0.00 60 1015.9
20260506195003 33 0 0.0 0.0 0.00 0.00 0.00 59 1016.0
20260506194503 33 0 0.0 0.0 0.00 0.00 0.00 57 1016.0
20260506194003 34 0 0.0 0.0 0.00 0.00 0.00 55 1015.9
20260506193503 34 0 0.0 0.0 0.00 0.00 0.00 54 1016.0
20260506193004 34 0 0.0 0.0 0.00 0.00 0.00 54 1016.0
20260506192503 35 0 0.0 0.0 0.00 0.00 0.00 55 1016.0
20260506192004 35 0 0.0 0.0 0.00 0.00 0.00 55 1016.0
20260506191503 36 0 0.0 0.0 0.00 0.00 0.00 54 1015.9
20260506191003 36 0 0.0 0.0 0.00 0.00 0.00 53 1015.9
20260506190503 36 0 0.0 0.0 0.00 0.00 0.00 52 1015.9
20260506190004 36 0 0.0 0.0 0.00 0.00 0.00 51 1015.8
20260506185717 37 0 0.0 0.0 0.00 0.00 0.00 51 1015.9
20260506185003 38 0 0.0 0.0 0.00 0.00 0.00 54 1015.7
20260506184503 38 0 0.0 0.0 0.00 0.00 0.00 53 1015.8
20260506184216 39 0 0.0 0.0 0.00 0.00 0.00 53 1015.7
20260506183503 40 0 0.0 0.0 0.00 0.00 0.00 51 1015.7
20260506183217 40 0 0.0 0.0 0.00 0.00 0.00 51 1015.5
20260506182503 40 0 0.0 0.0 0.00 0.00 0.00 50 1015.6
20260506182003 41 0 0.0 0.0 0.00 0.00 0.00 48 1015.6
20260506181503 42 0 0.0 0.0 0.00 0.00 0.00 45 1015.8
20260506181214 42 0 0.0 0.0 0.00 0.00 0.00 43 1015.7
20260506180503 42 0 0.0 0.0 0.00 0.00 0.00 43 1015.6
20260506180005 43 0 0.0 0.0 0.00 0.00 0.00 41 1015.6
20260506175503 43 0 0.0 0.0 0.00 0.00 0.00 40 1015.7
20260506175003 44 0 0.0 0.0 0.00 0.00 0.00 39 1015.7
20260506174503 45 0 0.0 0.0 0.00 0.00 0.00 37 1015.6
20260506174003 45 0 0.0 0.0 0.00 0.00 0.00 35 1015.6
20260506173503 46 0 0.0 0.0 0.00 0.00 0.00 33 1015.5
20260506173003 46 0 0.0 0.0 0.00 0.00 0.00 32 1015.6
20260506172715 46 0 0.0 0.0 0.00 0.00 0.00 32 1015.6
20260506172213 47 0 0.0 0.0 0.00 0.00 0.00 33 1015.6
20260506171716 47 0 0.0 0.0 0.00 0.00 0.00 32 1015.5
20260506171003 47 0 0.0 0.0 0.00 0.00 0.00 32 1015.6
20260506170503 48 315 0.0 2.0 0.00 0.00 0.00 32 1015.5
20260506170004 48 315 0.0 2.0 0.00 0.00 0.00 32 1015.5
20260506165503 48 225 0.0 2.0 0.00 0.00 0.00 31 1015.5
20260506165003 49 285 1.0 2.0 0.00 0.00 0.00 31 1015.7
20260506164504 49 323 1.0 2.0 0.00 0.00 0.00 29 1015.7
20260506164003 49 347 1.0 2.0 0.00 0.00 0.00 29 1015.6
20260506163503 50 323 1.0 2.0 0.00 0.00 0.00 29 1015.6
20260506163213 50 328 1.0 4.0 0.00 0.00 0.00 28 1015.6
20260506162503 50 330 1.0 4.0 0.00 0.00 0.00 27 1015.8
20260506162003 50 225 0.0 2.0 0.00 0.00 0.00 30 1015.7
20260506161504 49 241 0.0 2.0 0.00 0.00 0.00 31 1015.7
20260506161003 50 262 1.0 6.0 0.00 0.00 0.00 27 1015.6
20260506160503 51 294 2.0 6.0 0.00 0.00 0.00 26 1015.5
20260506160216 51 325 2.0 4.0 0.00 0.00 0.00 26 1015.5
20260506155503 51 311 2.0 3.0 0.00 0.00 0.00 25 1015.4
20260506155217 51 304 1.0 5.0 0.00 0.00 0.00 25 1015.5
20260506154503 51 296 2.0 5.0 0.00 0.00 0.00 25 1015.5
20260506154003 51 302 2.0 4.0 0.00 0.00 0.00 24 1015.6
20260506153503 51 299 2.0 6.0 0.00 0.00 0.00 24 1015.7
20260506153213 51 304 2.0 6.0 0.00 0.00 0.00 24 1015.5
20260506152503 52 329 1.0 3.0 0.00 0.00 0.00 22 1015.6
20260506152003 52 305 1.0 3.0 0.00 0.00 0.00 23 1015.4
20260506151717 52 302 2.0 6.0 0.00 0.00 0.00 23 1015.6
20260506151003 51 303 3.0 6.0 0.00 0.00 0.00 23 1015.7
20260506150504 51 294 2.0 4.0 0.00 0.00 0.00 23 1015.6
20260506150216 51 301 2.0 3.0 0.00 0.00 0.00 23 1015.6
20260506145503 52 322 3.0 4.0 0.00 0.00 0.00 22 1015.6
20260506145003 53 335 2.0 4.0 0.00 0.00 0.00 22 1015.6
20260506144716 53 349 2.0 4.0 0.00 0.00 0.00 22 1015.6
20260506144003 53 344 2.0 3.0 0.00 0.00 0.00 22 1015.6
20260506143503 53 329 2.0 4.0 0.00 0.00 0.00 22 1015.6
20260506143003 54 325 2.0 4.0 0.00 0.00 0.00 22 1015.5
20260506142503 53 341 3.0 4.0 0.00 0.00 0.00 23 1015.6
20260506142003 53 331 3.0 5.0 0.00 0.00 0.00 23 1015.7
20260506141503 53 311 2.0 5.0 0.00 0.00 0.00 23 1015.7
20260506141003 53 308 2.0 5.0 0.00 0.00 0.00 24 1015.7
20260506140503 53 343 2.0 7.0 0.00 0.00 0.00 24 1015.7
20260506140004 53 345 3.0 7.0 0.00 0.00 0.00 23 1015.6
20260506135503 54 326 4.0 7.0 0.00 0.00 0.00 21 1015.4
20260506135003 54 322 3.0 5.0 0.00 0.00 0.00 22 1015.6
20260506134504 55 321 3.0 4.0 0.00 0.00 0.00 22 1015.6
20260506134003 56 323 2.0 4.0 0.00 0.00 0.00 25 1015.4
20260506133504 55 335 2.0 4.0 0.00 0.00 0.00 23 1015.6
20260506133003 54 333 3.0 4.0 0.00 0.00 0.00 22 1015.4
20260506132503 55 307 3.0 4.0 0.00 0.00 0.00 22 1015.6
20260506132003 56 254 2.0 3.0 0.00 0.00 0.00 24 1015.6
20260506131503 56 287 2.0 4.0 0.00 0.00 0.00 25 1015.6
20260506131004 55 301 2.0 4.0 0.00 0.00 0.00 25 1015.7
20260506130503 56 318 4.0 8.0 0.00 0.00 0.00 25 1015.5
20260506130004 55 318 4.0 8.0 0.00 0.00 0.00 24 1015.6
20260506125503 56 323 3.0 5.0 0.00 0.00 0.00 24 1015.4
20260506125004 57 23 3.0 4.0 0.00 0.00 0.00 25 1015.6
20260506124717 56 338 4.0 8.0 0.00 0.00 0.00 25 1015.5
20260506124003 56 313 3.0 8.0 0.00 0.00 0.00 25 1015.4
20260506123718 57 330 2.0 6.0 0.00 0.00 0.00 25 1015.4
20260506123003 56 335 3.0 6.0 0.00 0.00 0.00 25 1015.4
20260506122503 56 328 2.0 4.0 0.00 0.00 0.00 27 1015.5
20260506122003 56 6 3.0 4.0 0.00 0.00 0.00 27 1015.6
20260506121503 56 348 3.0 5.0 0.00 0.00 0.00 28 1015.6
20260506121003 54 319 3.0 5.0 0.00 0.00 0.00 26 1015.6
20260506120503 54 323 3.0 4.0 0.00 0.00 0.00 26 1015.6
20260506120213 54 9 3.0 6.0 0.00 0.00 0.00 28 1015.5
20260506115503 54 352 3.0 6.0 0.00 0.00 0.00 26 1015.6
20260506115003 54 314 2.0 5.0 0.00 0.00 0.00 27 1015.6
20260506114503 54 320 2.0 5.0 0.00 0.00 0.00 27 1015.4
20260506114003 54 3 3.0 4.0 0.00 0.00 0.00 26 1015.5
20260506113503 54 349 4.0 5.0 0.00 0.00 0.00 25 1015.5
20260506113003 55 309 4.0 5.0 0.00 0.00 0.00 28 1015.5
20260506112503 55 310 3.0 5.0 0.00 0.00 0.00 28 1015.5
20260506112004 54 311 3.0 7.0 0.00 0.00 0.00 28 1015.5
20260506111503 54 319 4.0 7.0 0.00 0.00 0.00 28 1015.4
20260506111003 53 348 5.0 8.0 0.00 0.00 0.00 29 1015.5
20260506110716 53 14 5.0 8.0 0.00 0.00 0.00 29 1015.4
20260506110004 53 360 4.0 8.0 0.00 0.00 0.00 29 1015.5
20260506105503 56 6 3.0 7.0 0.00 0.00 0.00 27 1015.5